"datetime","temp","dp","rain_mm","uv","solar","mb","wind_mph","gust_mph","windchill","rh"
"2021-10-31 00:00:00",5.9,5.2,0.0,0.0,0,1000.4,0,1,"",95
"2021-10-31 00:01:00",5.9,5.2,0.0,0.0,0,1000.4,1,1,"",95
"2021-10-31 00:02:00",5.9,5.2,0.0,0.0,0,1000.4,0,1,"",95
"2021-10-31 00:03:00",5.8,5.1,0.0,0.0,0,1000.4,0,1,"",95
"2021-10-31 00:04:00",5.8,5.1,0.0,0.0,0,1000.4,0,1,"",95
"2021-10-31 00:05:00",5.8,5.1,0.0,0.0,0,1000.4,0,1,"",95
"2021-10-31 00:06:00",5.8,5.1,0.0,0.0,0,1000.4,0,0,"",95
"2021-10-31 00:07:00",5.8,5.1,0.0,0.0,0,1000.4,0,1,"",95
"2021-10-31 00:08:00",5.8,5.1,0.0,0.0,0,1000.3,1,1,"",95
"2021-10-31 00:09:00",5.8,5.1,0.0,0.0,0,1000.4,0,1,"",95
"2021-10-31 00:10:00",5.8,5.1,0.0,0.0,0,1000.3,0,1,"",95
"2021-10-31 00:11:00",5.8,5.1,0.0,0.0,0,1000.3,0,1,"",95
"2021-10-31 00:12:00",5.8,5.1,0.0,0.0,0,1000.3,0,0,"",95
"2021-10-31 00:13:00",5.8,5.1,0.0,0.0,0,1000.3,0,1,"",95
"2021-10-31 00:14:00",5.8,5.1,0.0,0.0,0,1000.3,0,2,"",95
"2021-10-31 00:15:00",5.7,5.0,0.0,0.0,0,1000.2,0,1,"",95
"2021-10-31 00:16:00",5.7,5.0,0.0,0.0,0,1000.3,0,1,"",95
"2021-10-31 00:17:00",5.7,5.0,0.0,0.0,0,1000.3,1,1,"",95
"2021-10-31 00:18:00",5.7,5.0,0.0,0.0,0,1000.3,1,2,"",95
"2021-10-31 00:19:00",5.7,5.0,0.0,0.0,0,1000.3,1,2,"",95
"2021-10-31 00:20:00",5.7,5.0,0.0,0.0,0,1000.3,1,2,"",95
"2021-10-31 00:21:00",5.7,5.0,0.0,0.0,0,1000.3,1,2,"",95
"2021-10-31 00:22:00",5.7,5.0,0.0,0.0,0,1000.3,1,2,"",95
"2021-10-31 00:23:00",5.7,5.0,0.0,0.0,0,1000.3,1,2,"",95
"2021-10-31 00:24:00",5.7,5.0,0.0,0.0,0,1000.3,1,2,"",95
"2021-10-31 00:25:00",5.7,5.0,0.0,0.0,0,1000.3,1,2,"",95
"2021-10-31 00:26:00",5.7,5.0,0.0,0.0,0,1000.3,1,2,"",95
"2021-10-31 00:27:00",5.6,4.9,0.0,0.0,0,1000.3,1,1,"",95
"2021-10-31 00:28:00",5.6,4.9,0.0,0.0,0,1000.3,1,1,"",95
"2021-10-31 00:29:00",5.6,4.9,0.0,0.0,0,1000.2,0,1,"",95
"2021-10-31 00:30:00",5.6,4.9,0.0,0.0,0,1000.2,1,1,"",95
"2021-10-31 00:31:00",5.6,4.9,0.0,0.0,0,1000.2,0,1,"",95
"2021-10-31 00:32:00",5.6,4.9,0.0,0.0,0,1000.2,0,1,"",95
"2021-10-31 00:33:00",5.6,4.9,0.0,0.0,0,1000.2,0,1,"",95
"2021-10-31 00:34:00",5.6,4.9,0.0,0.0,0,1000.2,0,1,"",95
"2021-10-31 00:35:00",5.6,4.9,0.0,0.0,0,1000.1,0,1,"",95
"2021-10-31 00:36:00",5.5,4.8,0.0,0.0,0,1000.1,0,0,"",95
"2021-10-31 00:37:00",5.5,4.8,0.0,0.0,0,1000.1,0,1,"",95
"2021-10-31 00:38:00",5.5,4.8,0.0,0.0,0,1000.1,0,0,"",95
"2021-10-31 00:39:00",5.5,4.8,0.0,0.0,0,1000.1,0,0,"",95
"2021-10-31 00:40:00",5.5,4.8,0.0,0.0,0,1000.1,0,0,"",95
"2021-10-31 00:41:00",5.5,4.8,0.0,0.0,0,1000.1,0,0,"",95
"2021-10-31 00:42:00",5.5,4.8,0.0,0.0,0,1000.0,0,0,"",95
"2021-10-31 00:43:00",5.5,4.8,0.0,0.0,0,1000.1,0,1,"",95
"2021-10-31 00:44:00",5.4,4.7,0.0,0.0,0,1000.0,0,0,"",95
"2021-10-31 00:45:00",5.4,4.7,0.0,0.0,0,1000.0,0,1,"",95
"2021-10-31 00:46:00",5.4,4.7,0.0,0.0,0,1000.0,0,0,"",95
"2021-10-31 00:47:00",5.4,4.7,0.0,0.0,0,1000.0,0,0,"",95
"2021-10-31 00:48:00",5.4,4.7,0.0,0.0,0,1000.0,0,0,"",95
"2021-10-31 00:49:00",5.4,4.7,0.0,0.0,0,1000.0,0,0,"",95
"2021-10-31 00:50:00",5.4,4.7,0.0,0.0,0,999.9,0,0,"",95
"2021-10-31 00:51:00",5.4,4.7,0.0,0.0,0,999.9,0,1,"",95
"2021-10-31 00:52:00",5.4,4.7,0.0,0.0,0,999.9,0,1,"",95
"2021-10-31 00:53:00",5.4,4.7,0.0,0.0,0,999.9,0,1,"",95
"2021-10-31 00:54:00",5.4,4.7,0.0,0.0,0,999.9,0,1,"",95
"2021-10-31 00:55:00",5.4,4.7,0.0,0.0,0,999.9,0,0,"",95
"2021-10-31 00:56:00",5.4,4.7,0.0,0.0,0,999.9,0,0,"",95
"2021-10-31 00:57:00",5.4,4.7,0.0,0.0,0,999.8,0,0,"",95
"2021-10-31 00:58:00",5.3,4.6,0.0,0.0,0,999.8,0,0,"",95
"2021-10-31 00:59:00",5.4,4.7,0.0,0.0,0,999.8,0,0,"",95
"2021-10-31 01:00:00",5.3,4.6,0.0,0.0,0,999.8,0,1,"",95
"2021-10-31 01:01:00",5.4,4.7,0.0,0.0,0,999.8,0,0,"",95
"2021-10-31 01:02:00",5.3,4.6,0.0,0.0,0,999.8,0,0,"",95
"2021-10-31 01:03:00",5.4,4.7,0.0,0.0,0,999.8,0,0,"",95
"2021-10-31 01:04:00",5.3,4.6,0.0,0.0,0,999.8,0,0,"",95
"2021-10-31 01:05:00",5.3,4.6,0.0,0.0,0,999.8,0,0,"",95
"2021-10-31 01:06:00",5.3,4.6,0.0,0.0,0,999.8,0,1,"",95
"2021-10-31 01:07:00",5.3,4.6,0.0,0.0,0,999.8,0,0,"",95
"2021-10-31 01:08:00",5.3,4.6,0.0,0.0,0,999.8,0,0,"",95
"2021-10-31 01:09:00",5.3,4.6,0.0,0.0,0,999.7,0,0,"",95
"2021-10-31 01:10:00",5.3,4.6,0.0,0.0,0,999.7,0,0,"",95
"2021-10-31 01:11:00",5.3,4.6,0.0,0.0,0,999.7,0,0,"",95
"2021-10-31 01:12:00",5.3,4.6,0.0,0.0,0,999.8,0,0,"",95
"2021-10-31 01:13:00",5.3,4.6,0.0,0.0,0,999.8,0,0,"",95
"2021-10-31 01:14:00",5.3,4.6,0.0,0.0,0,999.8,0,1,"",95
"2021-10-31 01:15:00",5.3,4.6,0.0,0.0,0,999.8,0,0,"",95
"2021-10-31 01:16:00",5.3,4.6,0.0,0.0,0,999.8,0,0,"",95
"2021-10-31 01:17:00",5.3,4.6,0.0,0.0,0,999.8,0,0,"",95
"2021-10-31 01:18:00",5.3,4.6,0.0,0.0,0,999.8,0,0,"",95
"2021-10-31 01:19:00",5.3,4.6,0.0,0.0,0,999.8,0,1,"",95
"2021-10-31 01:20:00",5.3,4.6,0.0,0.0,0,999.8,0,1,"",95
"2021-10-31 01:21:00",5.3,4.6,0.0,0.0,0,999.8,0,0,"",95
"2021-10-31 01:22:00",5.3,4.6,0.0,0.0,0,999.8,0,1,"",95
"2021-10-31 01:23:00",5.3,4.6,0.0,0.0,0,999.8,0,1,"",95
"2021-10-31 01:24:00",5.3,4.6,0.0,0.0,0,999.8,0,1,"",95
"2021-10-31 01:25:00",5.3,4.6,0.0,0.0,0,999.8,0,1,"",95
"2021-10-31 01:26:00",5.3,4.6,0.0,0.0,0,999.8,0,0,"",95
"2021-10-31 01:27:00",5.3,4.6,0.0,0.0,0,999.7,0,0,"",95
"2021-10-31 01:28:00",5.3,4.6,0.0,0.0,0,999.7,0,1,"",95
"2021-10-31 01:29:00",5.3,4.6,0.0,0.0,0,999.6,1,1,"",95
"2021-10-31 01:30:00",5.3,4.6,0.0,0.0,0,999.6,0,1,"",95
"2021-10-31 01:31:00",5.3,4.6,0.0,0.0,0,999.6,0,0,"",95
"2021-10-31 01:32:00",5.3,4.6,0.0,0.0,0,999.6,0,0,"",95
"2021-10-31 01:33:00",5.3,4.6,0.0,0.0,0,999.7,0,0,"",95
"2021-10-31 01:34:00",5.3,4.6,0.0,0.0,0,999.7,0,0,"",95
"2021-10-31 01:35:00",5.3,4.6,0.0,0.0,0,999.6,0,0,"",95
"2021-10-31 01:36:00",5.3,4.6,0.0,0.0,0,999.6,0,0,"",95
"2021-10-31 01:37:00",5.3,4.6,0.0,0.0,0,999.6,0,0,"",95
"2021-10-31 01:38:00",5.3,4.6,0.0,0.0,0,999.6,0,0,"",95
"2021-10-31 01:39:00",5.3,4.6,0.0,0.0,0,999.6,0,0,"",95
"2021-10-31 01:40:00",5.3,4.6,0.0,0.0,0,999.7,0,1,"",95
"2021-10-31 01:41:00",5.3,4.6,0.0,0.0,0,999.6,0,0,"",95
"2021-10-31 01:42:00",5.3,4.6,0.0,0.0,0,999.7,0,0,"",95
"2021-10-31 01:43:00",5.3,4.6,0.0,0.0,0,999.6,0,0,"",95
"2021-10-31 01:44:00",5.3,4.6,0.0,0.0,0,999.6,0,0,"",95
"2021-10-31 01:45:00",5.3,4.6,0.0,0.0,0,999.6,0,0,"",95
"2021-10-31 01:46:00",5.3,4.6,0.0,0.0,0,999.6,0,0,"",95
"2021-10-31 01:47:00",5.2,4.6,0.0,0.0,0,999.6,0,0,"",96
"2021-10-31 01:48:00",5.2,4.5,0.0,0.0,0,999.6,0,0,"",95
"2021-10-31 01:49:00",5.3,4.6,0.0,0.0,0,999.6,0,0,"",95
"2021-10-31 01:50:00",5.3,4.6,0.0,0.0,0,999.5,0,1,"",95
"2021-10-31 01:51:00",5.2,4.5,0.0,0.0,0,999.5,0,0,"",95
"2021-10-31 01:52:00",5.3,4.6,0.0,0.0,0,999.5,0,0,"",95
"2021-10-31 01:53:00",5.3,4.7,0.0,0.0,0,999.5,0,0,"",96
"2021-10-31 01:54:00",5.3,4.6,0.0,0.0,0,999.5,0,1,"",95
"2021-10-31 01:55:00",5.3,4.6,0.0,0.0,0,999.5,0,1,"",95
"2021-10-31 01:56:00",5.3,4.7,0.0,0.0,0,999.4,0,1,"",96
"2021-10-31 01:57:00",5.3,4.7,0.0,0.0,0,999.5,0,1,"",96
"2021-10-31 01:58:00",5.2,4.6,0.0,0.0,0,999.5,0,0,"",96
"2021-10-31 01:59:00",5.3,4.7,0.0,0.0,0,999.5,0,1,"",96
"2021-10-31 02:00:00",5.6,5.2,0.0,0.0,0,998.2,0,1,"",97
"2021-10-31 02:01:00",5.7,5.3,0.0,0.0,0,998.2,1,2,"",97
"2021-10-31 02:02:00",5.7,5.1,0.0,0.0,0,998.1,0,2,"",96
"2021-10-31 02:03:00",5.7,5.1,0.0,0.0,0,998.1,1,2,"",96
"2021-10-31 02:04:00",5.8,5.2,0.0,0.0,0,998.1,1,2,"",96
"2021-10-31 02:05:00",5.8,5.4,0.0,0.0,0,998.1,1,1,"",97
"2021-10-31 02:06:00",5.8,5.4,0.0,0.0,0,998.1,0,2,"",97
"2021-10-31 02:07:00",5.8,5.4,0.0,0.0,0,998.1,1,2,"",97
"2021-10-31 02:08:00",5.8,5.4,0.0,0.0,0,998.1,0,1,"",97
"2021-10-31 02:09:00",5.8,5.4,0.0,0.0,0,998.1,0,1,"",97
"2021-10-31 02:10:00",5.9,5.5,0.0,0.0,0,998.0,0,1,"",97
"2021-10-31 02:11:00",5.9,5.5,0.0,0.0,0,998.0,1,2,"",97
"2021-10-31 02:12:00",5.9,5.5,0.0,0.0,0,998.0,1,1,"",97
"2021-10-31 02:13:00",6.1,5.7,0.0,0.0,0,997.9,2,3,"",97
"2021-10-31 02:14:00",6.1,5.7,0.0,0.0,0,997.9,1,4,4.9,97
"2021-10-31 02:15:00",6.1,5.7,0.0,0.0,0,997.9,1,3,"",97
"2021-10-31 02:16:00",6.2,5.8,0.0,0.0,0,997.9,1,2,"",97
"2021-10-31 02:17:00",6.2,5.8,0.0,0.0,0,997.9,2,4,5.0,97
"2021-10-31 02:18:00",6.3,5.9,0.0,0.0,0,997.9,2,4,5.1,97
"2021-10-31 02:19:00",6.4,6.0,0.0,0.0,0,997.9,0,2,"",97
"2021-10-31 02:20:00",6.4,6.0,0.0,0.0,0,997.8,2,4,5.2,97
"2021-10-31 02:21:00",6.5,6.1,0.0,0.0,0,997.9,1,4,5.2,97
"2021-10-31 02:22:00",6.7,6.3,0.0,0.0,0,997.9,2,4,5.4,97
"2021-10-31 02:23:00",6.8,6.5,0.0,0.0,0,997.8,1,3,"",98
"2021-10-31 02:24:00",6.8,6.5,0.0,0.0,0,997.8,1,2,"",98
"2021-10-31 02:25:00",6.9,6.6,0.0,0.0,0,997.7,0,1,"",98
"2021-10-31 02:26:00",6.9,6.6,0.0,0.0,0,997.7,1,2,"",98
"2021-10-31 02:27:00",6.9,6.6,0.0,0.0,0,997.7,1,2,"",98
"2021-10-31 02:28:00",7.1,6.8,0.0,0.0,0,997.6,2,4,6.0,98
"2021-10-31 02:29:00",7.1,6.8,0.0,0.0,0,997.6,2,4,6.0,98
"2021-10-31 02:30:00",7.2,6.9,0.0,0.0,0,997.5,1,4,6.1,98
"2021-10-31 02:31:00",7.2,6.9,0.0,0.0,0,997.5,1,2,"",98
"2021-10-31 02:32:00",7.3,7.0,0.0,0.0,0,997.5,1,1,"",98
"2021-10-31 02:33:00",7.3,7.0,0.0,0.0,0,997.4,1,3,"",98
"2021-10-31 02:34:00",7.4,7.1,0.0,0.0,0,997.4,2,3,"",98
"2021-10-31 02:35:00",7.4,7.1,0.0,0.0,0,997.4,1,3,"",98
"2021-10-31 02:36:00",7.6,7.3,0.0,0.0,0,997.4,3,7,5.4,98
"2021-10-31 02:37:00",7.7,7.4,0.0,0.0,0,997.3,2,3,"",98
"2021-10-31 02:38:00",7.8,7.5,0.0,0.0,0,997.3,2,4,6.8,98
"2021-10-31 02:39:00",7.9,7.6,0.0,0.0,0,997.2,2,3,"",98
"2021-10-31 02:40:00",8.0,7.7,0.0,0.0,0,997.2,1,3,"",98
"2021-10-31 02:41:00",8.1,7.8,0.0,0.0,0,997.1,1,2,"",98
"2021-10-31 02:42:00",8.1,7.8,0.0,0.0,0,997.1,1,2,"",98
"2021-10-31 02:43:00",8.1,7.8,0.0,0.0,0,997.1,2,6,6.4,98
"2021-10-31 02:44:00",8.2,7.9,0.0,0.0,0,997.0,3,5,6.9,98
"2021-10-31 02:45:00",8.3,8.0,0.0,0.0,0,997.1,2,5,6.9,98
"2021-10-31 02:46:00",8.4,8.1,0.0,0.0,0,997.1,3,5,7.0,98
"2021-10-31 02:47:00",8.5,8.2,0.0,0.0,0,997.0,1,4,7.5,98
"2021-10-31 02:48:00",8.6,8.3,0.0,0.0,0,997.0,2,4,7.7,98
"2021-10-31 02:49:00",8.7,8.4,0.0,0.0,0,997.0,2,4,7.7,98
"2021-10-31 02:50:00",8.8,8.5,0.0,0.0,0,997.0,3,6,7.1,98
"2021-10-31 02:51:00",8.8,8.7,0.0,0.0,0,996.9,1,3,"",99
"2021-10-31 02:52:00",8.9,8.6,0.0,0.0,0,996.9,1,2,"",98
"2021-10-31 02:53:00",9.0,8.7,0.0,0.0,0,996.9,2,4,8.1,98
"2021-10-31 02:54:00",9.1,9.0,0.0,0.0,0,996.9,1,3,"",99
"2021-10-31 02:55:00",9.2,9.1,0.0,0.0,0,996.8,1,2,"",99
"2021-10-31 02:56:00",9.2,9.1,0.0,0.0,0,996.8,0,1,"",99
"2021-10-31 02:57:00",9.3,9.2,0.0,0.0,0,996.8,3,5,8.1,99
"2021-10-31 02:58:00",9.3,9.0,0.0,0.0,0,996.8,2,4,8.6,98
"2021-10-31 02:59:00",9.4,9.1,0.0,0.0,0,996.8,2,4,8.6,98
"2021-10-31 03:00:00",9.4,9.3,0.0,0.0,0,996.8,2,4,8.7,99
"2021-10-31 03:01:00",9.5,9.4,0.0,0.0,0,996.8,3,6,8.1,99
"2021-10-31 03:02:00",9.6,9.5,0.0,0.0,0,996.7,2,4,8.8,99
"2021-10-31 03:03:00",9.7,9.4,0.0,0.0,0,996.7,3,6,8.2,98
"2021-10-31 03:04:00",9.7,9.6,0.0,0.0,0,996.7,4,8,7.8,99
"2021-10-31 03:05:00",9.8,9.7,0.0,0.0,0,996.6,1,2,"",99
"2021-10-31 03:06:00",9.8,9.7,0.0,0.0,0,996.6,1,2,"",99
"2021-10-31 03:07:00",9.9,9.7,0.0,0.0,0,996.5,2,4,9.1,99
"2021-10-31 03:08:00",9.9,9.6,0.0,0.0,0,996.5,1,2,"",98
"2021-10-31 03:09:00",9.9,9.6,0.0,0.0,0,996.5,2,7,8.3,98
"2021-10-31 03:10:00",10.1,9.9,0.0,0.0,0,996.5,4,6,8.7,99
"2021-10-31 03:11:00",10.1,9.9,0.0,0.0,0,996.5,2,2,"",99
"2021-10-31 03:12:00",10.1,9.9,0.0,0.0,0,996.5,2,5,"",99
"2021-10-31 03:13:00",10.2,10.0,0.0,0.0,0,996.5,5,8,"",99
"2021-10-31 03:14:00",10.2,10.0,0.0,0.0,0,996.5,2,6,"",99
"2021-10-31 03:15:00",10.3,10.0,0.0,0.0,0,996.5,3,8,"",98
"2021-10-31 03:16:00",10.3,10.1,0.0,0.0,0,996.4,2,3,"",99
"2021-10-31 03:17:00",10.3,10.0,0.0,0.0,0,996.4,1,3,"",98
"2021-10-31 03:18:00",10.3,10.0,0.0,0.0,0,996.5,1,3,"",98
"2021-10-31 03:19:00",10.4,10.1,0.0,0.0,0,996.4,2,5,"",98
"2021-10-31 03:20:00",10.4,10.1,0.0,0.0,0,996.4,1,3,"",98
"2021-10-31 03:21:00",10.4,10.2,0.0,0.0,0,996.4,3,8,"",99
"2021-10-31 03:22:00",10.4,10.2,0.0,0.0,0,996.3,2,5,"",99
"2021-10-31 03:23:00",10.4,10.2,0.0,0.0,0,996.3,1,3,"",99
"2021-10-31 03:24:00",10.5,10.3,0.0,0.0,0,996.2,1,3,"",99
"2021-10-31 03:25:00",10.5,10.3,0.0,0.0,0,996.1,3,6,"",99
"2021-10-31 03:26:00",10.5,10.3,0.0,0.0,0,996.1,2,8,"",99
"2021-10-31 03:27:00",10.6,10.3,0.0,0.0,0,996.1,3,5,"",98
"2021-10-31 03:28:00",10.6,10.3,0.0,0.0,0,996.1,1,3,"",98
"2021-10-31 03:29:00",10.6,10.3,0.0,0.0,0,996.0,1,3,"",98
"2021-10-31 03:30:00",10.6,10.3,0.0,0.0,0,996.0,3,5,"",98
"2021-10-31 03:31:00",10.6,10.3,0.0,0.0,0,996.0,1,3,"",98
"2021-10-31 03:32:00",10.7,10.4,0.0,0.0,0,996.0,1,2,"",98
"2021-10-31 03:33:00",10.7,10.5,0.0,0.0,0,996.0,3,5,"",99
"2021-10-31 03:34:00",10.7,10.4,0.0,0.0,0,995.9,2,4,"",98
"2021-10-31 03:35:00",10.7,10.5,0.0,0.0,0,995.9,3,6,"",99
"2021-10-31 03:36:00",10.7,10.5,0.0,0.0,0,995.8,2,4,"",99
"2021-10-31 03:37:00",10.7,10.5,0.0,0.0,0,995.9,2,3,"",99
"2021-10-31 03:38:00",10.7,10.5,0.0,0.0,0,995.9,2,4,"",99
"2021-10-31 03:39:00",10.8,10.6,0.0,0.0,0,995.8,3,5,"",99
"2021-10-31 03:40:00",10.8,10.6,0.0,0.0,0,995.8,2,3,"",99
"2021-10-31 03:41:00",10.8,10.6,0.0,0.0,0,995.9,2,5,"",99
"2021-10-31 03:42:00",10.8,10.6,0.0,0.0,0,995.8,1,2,"",99
"2021-10-31 03:43:00",10.8,10.5,0.0,0.0,0,995.8,1,2,"",98
"2021-10-31 03:44:00",10.8,10.6,0.0,0.0,0,995.8,2,6,"",99
"2021-10-31 03:45:00",10.9,10.6,0.0,0.0,0,995.8,3,5,"",98
"2021-10-31 03:46:00",10.9,10.6,0.0,0.0,0,995.8,1,2,"",98
"2021-10-31 03:47:00",10.9,10.6,0.0,0.0,0,995.8,2,4,"",98
"2021-10-31 03:48:00",10.9,10.6,0.0,0.0,0,995.8,2,3,"",98
"2021-10-31 03:49:00",10.9,10.6,0.0,0.0,0,995.8,1,3,"",98
"2021-10-31 03:50:00",11.0,10.7,0.0,0.0,0,995.8,4,9,"",98
"2021-10-31 03:51:00",11.1,10.8,0.0,0.0,0,995.9,2,5,"",98
"2021-10-31 03:52:00",11.1,10.9,0.0,0.0,0,995.8,4,10,"",99
"2021-10-31 03:53:00",11.1,10.9,0.0,0.0,0,995.7,2,5,"",99
"2021-10-31 03:54:00",11.1,10.9,0.0,0.0,0,995.7,1,2,"",99
"2021-10-31 03:55:00",11.2,10.9,0.0,0.0,0,995.8,3,8,"",98
"2021-10-31 03:56:00",11.2,11.0,0.0,0.0,0,995.8,2,5,"",99
"2021-10-31 03:57:00",11.2,11.0,0.0,0.0,0,995.8,3,7,"",99
"2021-10-31 03:58:00",11.2,10.9,0.0,0.0,0,995.8,3,7,"",98
"2021-10-31 03:59:00",11.3,11.0,0.0,0.0,0,995.8,3,6,"",98
"2021-10-31 04:00:00",11.3,11.0,0.0,0.0,0,995.8,2,3,"",98
"2021-10-31 04:01:00",11.3,11.0,0.0,0.0,0,995.8,1,2,"",98
"2021-10-31 04:02:00",11.3,11.0,0.0,0.0,0,995.7,2,5,"",98
"2021-10-31 04:03:00",11.3,11.0,0.0,0.0,0,995.6,2,5,"",98
"2021-10-31 04:04:00",11.3,11.0,0.0,0.0,0,995.5,3,5,"",98
"2021-10-31 04:05:00",11.3,11.0,0.0,0.0,0,995.5,1,4,"",98
"2021-10-31 04:06:00",11.3,11.0,0.0,0.0,0,995.4,1,3,"",98
"2021-10-31 04:07:00",11.4,11.1,0.0,0.0,0,995.3,2,5,"",98
"2021-10-31 04:08:00",11.4,11.1,0.0,0.0,0,995.2,4,7,"",98
"2021-10-31 04:09:00",11.4,11.1,0.0,0.0,0,995.2,4,8,"",98
"2021-10-31 04:10:00",11.4,11.1,0.0,0.0,0,995.2,2,4,"",98
"2021-10-31 04:11:00",11.4,11.1,0.0,0.0,0,995.2,3,6,"",98
"2021-10-31 04:12:00",11.4,11.1,0.0,0.0,0,995.2,3,5,"",98
"2021-10-31 04:13:00",11.4,11.1,0.0,0.0,0,995.2,2,3,"",98
"2021-10-31 04:14:00",11.4,11.1,0.0,0.0,0,995.1,1,3,"",98
"2021-10-31 04:15:00",11.4,11.1,0.0,0.0,0,995.0,3,6,"",98
"2021-10-31 04:16:00",11.5,11.2,0.0,0.0,0,995.0,2,7,"",98
"2021-10-31 04:17:00",11.5,11.2,0.0,0.0,0,994.8,2,4,"",98
"2021-10-31 04:18:00",11.5,11.2,0.0,0.0,0,994.8,2,3,"",98
"2021-10-31 04:19:00",11.5,11.2,0.0,0.0,0,994.7,2,3,"",98
"2021-10-31 04:20:00",11.5,11.2,0.0,0.0,0,994.7,3,6,"",98
"2021-10-31 04:21:00",11.6,11.3,0.0,0.0,0,994.7,3,7,"",98
"2021-10-31 04:22:00",11.6,11.3,0.0,0.0,0,994.7,1,2,"",98
"2021-10-31 04:23:00",11.6,11.3,0.0,0.0,0,994.7,2,4,"",98
"2021-10-31 04:24:00",11.6,11.3,0.0,0.0,0,994.7,2,4,"",98
"2021-10-31 04:25:00",11.5,11.2,0.0,0.0,0,994.7,2,4,"",98
"2021-10-31 04:26:00",11.6,11.3,0.0,0.0,0,994.5,2,7,"",98
"2021-10-31 04:27:00",11.6,11.3,0.0,0.0,0,994.6,3,7,"",98
"2021-10-31 04:28:00",11.6,11.3,0.0,0.0,0,994.5,1,2,"",98
"2021-10-31 04:29:00",11.6,11.3,0.0,0.0,0,994.4,2,6,"",98
"2021-10-31 04:30:00",11.6,11.3,0.0,0.0,0,994.4,3,6,"",98
"2021-10-31 04:31:00",11.6,11.3,0.0,0.0,0,994.4,3,6,"",98
"2021-10-31 04:32:00",11.6,11.3,0.0,0.0,0,994.4,3,7,"",98
"2021-10-31 04:33:00",11.6,11.3,0.0,0.0,0,994.3,2,6,"",98
"2021-10-31 04:34:00",11.6,11.3,0.0,0.0,0,994.3,4,11,"",98
"2021-10-31 04:35:00",11.6,11.3,0.0,0.0,0,994.2,4,7,"",98
"2021-10-31 04:36:00",11.6,11.3,0.0,0.0,0,994.2,2,4,"",98
"2021-10-31 04:37:00",11.7,11.4,0.0,0.0,0,994.2,3,7,"",98
"2021-10-31 04:38:00",11.6,11.3,0.0,0.0,0,994.1,4,7,"",98
"2021-10-31 04:39:00",11.7,11.4,0.0,0.0,0,994.1,4,8,"",98
"2021-10-31 04:40:00",11.7,11.4,0.0,0.0,0,994.0,3,6,"",98
"2021-10-31 04:41:00",11.7,11.4,0.0,0.0,0,994.0,2,4,"",98
"2021-10-31 04:42:00",11.7,11.4,0.0,0.0,0,994.1,1,4,"",98
"2021-10-31 04:43:00",11.7,11.4,0.0,0.0,0,994.0,2,7,"",98
"2021-10-31 04:44:00",11.7,11.4,0.0,0.0,0,994.0,4,10,"",98
"2021-10-31 04:45:00",11.7,11.4,0.0,0.0,0,994.0,4,7,"",98
"2021-10-31 04:46:00",11.7,11.2,0.0,0.0,0,994.1,3,5,"",97
"2021-10-31 04:47:00",11.7,11.2,0.0,0.0,0,994.1,3,6,"",97
"2021-10-31 04:48:00",11.7,11.2,0.0,0.0,0,994.1,3,7,"",97
"2021-10-31 04:49:00",11.7,11.2,0.0,0.0,0,994.1,4,7,"",97
"2021-10-31 04:50:00",11.7,11.2,0.0,0.0,0,994.1,5,10,"",97
"2021-10-31 04:51:00",11.8,11.3,0.0,0.0,0,994.0,3,7,"",97
"2021-10-31 04:52:00",11.8,11.3,0.0,0.0,0,994.1,4,8,"",97
"2021-10-31 04:53:00",11.8,11.3,0.0,0.0,0,994.0,2,8,"",97
"2021-10-31 04:54:00",11.8,11.3,0.0,0.0,0,994.1,2,4,"",97
"2021-10-31 04:55:00",11.8,11.3,0.0,0.0,0,994.1,3,6,"",97
"2021-10-31 04:56:00",11.8,11.3,0.0,0.0,0,994.1,4,9,"",97
"2021-10-31 04:57:00",11.8,11.3,0.0,0.0,0,994.1,3,10,"",97
"2021-10-31 04:58:00",11.8,11.3,0.0,0.0,0,994.0,3,5,"",97
"2021-10-31 04:59:00",11.8,11.3,0.0,0.0,0,994.0,2,5,"",97
"2021-10-31 05:00:00",11.8,11.3,0.0,0.0,0,993.9,1,2,"",97
"2021-10-31 05:01:00",11.8,11.3,0.0,0.0,0,993.8,6,8,"",97
"2021-10-31 05:02:00",11.8,11.3,0.0,0.0,0,993.7,3,8,"",97
"2021-10-31 05:03:00",11.8,11.3,0.0,0.0,0,993.7,3,6,"",97
"2021-10-31 05:04:00",11.8,11.2,0.0,0.0,0,993.7,4,6,"",96
"2021-10-31 05:05:00",11.8,11.2,0.0,0.0,0,993.7,3,5,"",96
"2021-10-31 05:06:00",11.8,11.2,0.0,0.0,0,993.7,2,4,"",96
"2021-10-31 05:07:00",11.9,11.3,0.0,0.0,0,993.6,2,3,"",96
"2021-10-31 05:08:00",11.8,11.2,0.0,0.0,0,993.5,5,9,"",96
"2021-10-31 05:09:00",11.8,11.2,0.0,0.0,0,993.6,2,3,"",96
"2021-10-31 05:10:00",11.9,11.3,0.0,0.0,0,993.5,3,5,"",96
"2021-10-31 05:11:00",11.9,11.3,0.0,0.0,0,993.6,2,5,"",96
"2021-10-31 05:12:00",11.9,11.3,0.0,0.0,0,993.6,2,3,"",96
"2021-10-31 05:13:00",11.9,11.3,0.0,0.0,0,993.6,1,2,"",96
"2021-10-31 05:14:00",11.9,11.3,0.0,0.0,0,993.6,2,4,"",96
"2021-10-31 05:15:00",11.9,11.3,0.0,0.0,0,993.6,2,4,"",96
"2021-10-31 05:16:00",11.9,11.3,0.0,0.0,0,993.5,2,4,"",96
"2021-10-31 05:17:00",11.9,11.3,0.0,0.0,0,993.5,2,4,"",96
"2021-10-31 05:18:00",11.9,11.3,0.0,0.0,0,993.4,3,6,"",96
"2021-10-31 05:19:00",11.9,11.3,0.0,0.0,0,993.3,4,12,"",96
"2021-10-31 05:20:00",12.0,11.4,0.0,0.0,0,993.4,3,6,"",96
"2021-10-31 05:21:00",12.0,11.4,0.0,0.0,0,993.4,4,8,"",96
"2021-10-31 05:22:00",12.0,11.4,0.0,0.0,0,993.3,2,4,"",96
"2021-10-31 05:23:00",12.0,11.4,0.0,0.0,0,993.3,3,10,"",96
"2021-10-31 05:24:00",12.0,11.4,0.0,0.0,0,993.5,4,7,"",96
"2021-10-31 05:25:00",12.1,11.5,0.0,0.0,0,993.4,5,11,"",96
"2021-10-31 05:26:00",12.1,11.5,0.0,0.0,0,993.4,3,6,"",96
"2021-10-31 05:27:00",12.1,11.3,0.0,0.0,0,993.3,4,11,"",95
"2021-10-31 05:28:00",12.1,11.3,0.0,0.0,0,993.3,4,9,"",95
"2021-10-31 05:29:00",12.1,11.3,0.0,0.0,0,993.3,5,10,"",95
"2021-10-31 05:30:00",12.1,11.3,0.0,0.0,0,993.3,3,7,"",95
"2021-10-31 05:31:00",12.1,11.3,0.0,0.0,0,993.3,7,11,"",95
"2021-10-31 05:32:00",12.1,11.3,0.0,0.0,0,993.3,2,4,"",95
"2021-10-31 05:33:00",12.2,11.4,0.0,0.0,0,993.1,3,10,"",95
"2021-10-31 05:34:00",12.2,11.4,0.0,0.0,0,993.0,5,7,"",95
"2021-10-31 05:35:00",12.2,11.4,0.0,0.0,0,992.9,3,6,"",95
"2021-10-31 05:36:00",12.2,11.4,0.0,0.0,0,992.8,5,8,"",95
"2021-10-31 05:37:00",12.3,11.5,0.0,0.0,0,992.9,3,6,"",95
"2021-10-31 05:38:00",12.2,11.3,0.0,0.0,0,992.8,3,8,"",94
"2021-10-31 05:39:00",12.3,11.4,0.2,0.0,0,992.8,4,8,"",94
"2021-10-31 05:40:00",12.3,11.4,0.2,0.0,0,992.7,2,4,"",94
"2021-10-31 05:41:00",12.3,11.4,0.2,0.0,0,992.7,3,6,"",94
"2021-10-31 05:42:00",12.3,11.4,0.2,0.0,0,992.6,5,10,"",94
"2021-10-31 05:43:00",12.3,11.4,0.2,0.0,0,992.5,4,6,"",94
"2021-10-31 05:44:00",12.3,11.4,0.2,0.0,0,992.4,3,7,"",94
"2021-10-31 05:45:00",12.3,11.4,0.2,0.0,0,992.3,1,2,"",94
"2021-10-31 05:46:00",12.4,11.5,0.4,0.0,0,992.4,2,7,"",94
"2021-10-31 05:47:00",12.3,11.4,0.4,0.0,0,992.3,3,7,"",94
"2021-10-31 05:48:00",12.3,11.4,0.4,0.0,0,992.3,3,6,"",94
"2021-10-31 05:49:00",12.4,11.5,0.4,0.0,0,992.3,4,7,"",94
"2021-10-31 05:50:00",12.4,11.5,0.4,0.0,0,992.4,5,10,"",94
"2021-10-31 05:51:00",12.4,11.5,0.4,0.0,0,992.2,5,10,"",94
"2021-10-31 05:52:00",12.4,11.5,0.4,0.0,0,992.2,3,7,"",94
"2021-10-31 05:53:00",12.4,11.5,0.4,0.0,0,992.1,6,9,"",94
"2021-10-31 05:54:00",12.4,11.5,0.4,0.0,0,992.1,7,11,"",94
"2021-10-31 05:55:00",12.5,11.6,0.4,0.0,0,992.1,3,7,"",94
"2021-10-31 05:56:00",12.4,11.5,0.4,0.0,0,992.0,3,7,"",94
"2021-10-31 05:57:00",12.5,11.6,0.6,0.0,0,992.0,4,6,"",94
"2021-10-31 05:58:00",12.5,11.6,0.6,0.0,0,992.0,3,5,"",94
"2021-10-31 05:59:00",12.4,11.5,0.6,0.0,0,992.0,2,6,"",94
"2021-10-31 06:00:00",12.4,11.5,0.6,0.0,0,992.0,2,7,"",94
"2021-10-31 06:01:00",12.4,11.5,0.6,0.0,0,992.0,3,11,"",94
"2021-10-31 06:02:00",12.4,11.5,0.6,0.0,0,991.9,3,9,"",94
"2021-10-31 06:03:00",12.4,11.5,0.8,0.0,0,992.0,5,9,"",94
"2021-10-31 06:04:00",12.4,11.5,0.8,0.0,0,991.9,4,7,"",94
"2021-10-31 06:05:00",12.5,11.6,0.8,0.0,0,992.0,4,9,"",94
"2021-10-31 06:06:00",12.4,11.5,0.8,0.0,0,992.0,4,9,"",94
"2021-10-31 06:07:00",12.5,11.7,0.8,0.0,0,991.9,4,6,"",95
"2021-10-31 06:08:00",12.4,11.6,1.0,0.0,0,991.9,4,9,"",95
"2021-10-31 06:09:00",12.4,11.6,1.0,0.0,0,991.9,4,7,"",95
"2021-10-31 06:10:00",12.4,11.6,1.2,0.0,0,991.9,5,11,"",95
"2021-10-31 06:11:00",12.4,11.6,1.2,0.0,0,991.9,3,6,"",95
"2021-10-31 06:12:00",12.4,11.6,1.2,0.0,0,991.8,2,4,"",95
"2021-10-31 06:13:00",12.4,11.6,1.4,0.0,0,991.8,4,12,"",95
"2021-10-31 06:14:00",12.4,11.6,1.6,0.0,0,991.9,5,10,"",95
"2021-10-31 06:15:00",12.4,11.6,1.6,0.0,0,991.9,2,4,"",95
"2021-10-31 06:16:00",12.4,11.6,1.6,0.0,0,991.9,3,6,"",95
"2021-10-31 06:17:00",12.4,11.6,1.8,0.0,0,991.9,2,4,"",95
"2021-10-31 06:18:00",12.4,11.6,2.0,0.0,0,991.9,3,5,"",95
"2021-10-31 06:19:00",12.4,11.6,2.0,0.0,0,991.9,4,8,"",95
"2021-10-31 06:20:00",12.4,11.6,2.2,0.0,0,991.8,4,8,"",95
"2021-10-31 06:21:00",12.4,11.6,2.2,0.0,0,991.9,5,7,"",95
"2021-10-31 06:22:00",12.4,11.6,2.4,0.0,0,991.9,4,8,"",95
"2021-10-31 06:23:00",12.4,11.6,2.4,0.0,0,991.8,5,14,"",95
"2021-10-31 06:24:00",12.4,11.6,2.4,0.0,0,991.6,8,17,"",95
"2021-10-31 06:25:00",12.4,11.6,2.4,0.0,0,991.8,9,14,"",95
"2021-10-31 06:26:00",12.4,11.6,2.4,0.0,0,991.7,4,8,"",95
"2021-10-31 06:27:00",12.4,11.6,2.4,0.0,0,991.6,4,7,"",95
"2021-10-31 06:28:00",12.4,11.6,2.6,0.0,0,991.7,4,7,"",95
"2021-10-31 06:29:00",12.4,11.8,2.6,0.0,0,991.7,6,12,"",96
"2021-10-31 06:30:00",12.4,11.8,2.6,0.0,0,991.5,4,6,"",96
"2021-10-31 06:31:00",12.4,11.8,2.8,0.0,0,991.5,4,8,"",96
"2021-10-31 06:32:00",12.4,11.8,2.8,0.0,0,991.4,3,5,"",96
"2021-10-31 06:33:00",12.4,11.8,2.8,0.0,0,991.4,4,7,"",96
"2021-10-31 06:34:00",12.3,11.7,3.0,0.0,0,991.3,4,7,"",96
"2021-10-31 06:35:00",12.3,11.7,3.0,0.0,0,991.3,3,8,"",96
"2021-10-31 06:36:00",12.3,11.7,3.0,0.0,0,991.2,2,5,"",96
"2021-10-31 06:37:00",12.3,11.7,3.0,0.0,0,991.2,2,4,"",96
"2021-10-31 06:38:00",12.3,11.7,3.0,0.0,0,991.1,2,4,"",96
"2021-10-31 06:39:00",12.3,11.7,3.0,0.0,0,991.2,3,6,"",96
"2021-10-31 06:40:00",12.3,11.7,3.0,0.0,0,991.1,7,12,"",96
"2021-10-31 06:41:00",12.3,11.7,3.2,0.0,0,991.1,3,8,"",96
"2021-10-31 06:42:00",12.3,11.7,3.2,0.0,0,991.0,2,4,"",96
"2021-10-31 06:43:00",12.3,11.7,3.2,0.0,0,991.0,2,5,"",96
"2021-10-31 06:44:00",12.3,11.7,3.2,0.0,0,990.9,1,2,"",96
"2021-10-31 06:45:00",12.3,11.7,3.2,0.0,0,990.9,2,4,"",96
"2021-10-31 06:46:00",12.3,11.7,3.2,0.0,0,991.0,4,8,"",96
"2021-10-31 06:47:00",12.3,11.7,3.4,0.0,0,990.8,3,4,"",96
"2021-10-31 06:48:00",12.3,11.7,3.4,0.0,0,990.8,3,5,"",96
"2021-10-31 06:49:00",12.3,11.7,3.6,0.0,0,990.7,3,6,"",96
"2021-10-31 06:50:00",12.2,11.6,3.6,0.0,0,990.8,3,8,"",96
"2021-10-31 06:51:00",12.2,11.6,3.6,0.0,0,990.8,5,11,"",96
"2021-10-31 06:52:00",12.2,11.6,3.6,0.0,0,990.8,4,7,"",96
"2021-10-31 06:53:00",12.2,11.6,3.8,0.0,0,990.7,3,7,"",96
"2021-10-31 06:54:00",12.2,11.6,4.0,0.0,0,990.7,4,6,"",96
"2021-10-31 06:55:00",12.2,11.6,4.0,0.0,0,990.6,3,6,"",96
"2021-10-31 06:56:00",12.2,11.6,4.2,0.0,0,990.6,3,8,"",96